WA1DLZ Weather Reports


time (UTC)temp
C
wind
direction
speed
KPH
gust
KPH
rain 1hr
cm
rain 24hr
cm
rain mn
cm
humidity
%
barometer
mb
20260507091004 6 346 0.0 0.0 0.00 1.63 0.30 98 1004.9
20260507090504 6 346 0.0 0.0 0.00 1.63 0.30 98 1004.9
20260507090005 6 346 0.0 0.0 0.00 1.63 0.30 98 1004.9
20260507085503 6 346 0.0 0.0 0.00 1.63 0.30 98 1005.0
20260507085004 6 346 0.0 0.0 0.00 1.63 0.30 98 1004.7
20260507084504 6 346 0.0 0.0 0.00 1.63 0.30 98 1004.3
20260507084004 6 346 0.0 0.0 0.00 1.63 0.30 98 1004.1
20260507083504 6 346 0.0 0.0 0.00 1.63 0.30 98 1004.2
20260507083004 6 346 0.0 0.0 0.00 1.63 0.30 98 1004.2
20260507082504 7 346 0.0 0.0 0.00 1.63 0.30 98 1004.1
20260507082003 7 346 0.0 0.0 0.00 1.63 0.30 98 1004.4
20260507081503 7 346 0.0 0.0 0.00 1.63 0.30 98 1004.6
20260507081004 7 346 0.0 0.0 0.00 1.63 0.30 98 1004.7
20260507080504 7 349 0.0 0.0 0.00 1.63 0.30 98 1004.7
20260507080004 7 350 0.0 0.0 0.00 1.63 0.30 98 1004.7
20260507075504 7 353 0.0 0.0 0.00 1.63 0.30 98 1004.6
20260507075004 7 353 0.0 0.0 0.00 1.63 0.30 98 1004.8
20260507074004 7 355 0.0 0.0 0.00 1.63 0.30 98 1004.8
20260507073004 7 353 0.0 0.0 0.00 1.63 0.30 98 1004.5
20260507072504 7 355 0.0 0.0 0.00 1.63 0.30 98 1004.4
20260507072004 7 355 0.0 0.0 0.00 1.63 0.30 98 1004.4
20260507070504 7 355 0.0 0.0 0.00 1.63 0.30 98 1004.4
20260507070008 7 355 0.0 0.0 0.00 1.63 0.30 98 1004.2
20260507065004 7 355 0.0 0.0 0.00 1.63 0.30 98 1003.9
20260507064504 7 355 0.0 0.0 0.00 1.63 0.30 98 1003.8
20260507063504 8 355 0.0 0.0 0.00 1.63 0.30 98 1004.0
20260507063004 7 355 0.0 0.0 0.00 1.63 0.30 98 1004.0
20260507062504 7 355 0.0 0.0 0.00 1.63 0.30 98 1004.0
20260507062005 7 355 0.0 0.0 0.03 1.63 0.30 98 1004.0
20260507061503 7 355 0.0 0.0 0.05 1.63 0.30 98 1004.0
20260507061004 8 355 0.0 0.0 0.08 1.63 0.30 98 1004.0
20260507060504 8 355 0.0 0.0 0.08 1.63 0.30 98 1003.7
20260507060004 8 355 0.0 0.0 0.10 1.63 0.30 98 1003.5
20260507055504 8 355 0.0 0.0 0.15 1.63 0.30 98 1003.7
20260507055004 8 355 0.0 0.0 0.18 1.63 0.30 98 1003.6
20260507054505 8 355 0.0 0.0 0.18 1.63 0.30 98 1003.5
20260507054004 8 355 0.0 0.0 0.20 1.63 0.30 98 1003.9
20260507053504 8 355 0.0 0.0 0.23 1.63 0.30 98 1003.9
20260507053004 8 355 0.0 0.0 0.23 1.63 0.30 98 1003.8
20260507052504 8 355 0.0 0.0 0.23 1.63 0.30 98 1003.7
20260507052004 8 355 0.0 0.0 0.20 1.60 0.28 98 1004.1
20260507051504 8 355 0.0 0.0 0.20 1.57 0.25 98 1004.1
20260507051004 8 355 0.0 0.0 0.18 1.55 0.23 98 1003.8
20260507050505 9 355 0.0 0.0 0.18 1.55 0.23 98 1003.6
20260507050004 9 355 0.0 0.0 0.20 1.52 0.20 98 1003.8
20260507045504 9 355 0.0 0.0 0.20 1.47 0.15 98 1004.1
20260507045004 9 355 0.0 0.0 0.20 1.45 0.13 98 1004.1
20260507044504 9 355 0.0 0.0 0.23 1.45 0.13 98 1004.2
20260507044004 9 355 0.0 0.0 0.25 1.42 0.10 98 1004.1
20260507043504 9 355 0.0 0.0 0.25 1.40 0.08 98 1003.9
20260507042504 10 351 0.0 0.0 0.36 1.40 0.08 98 1003.8
20260507042004 10 351 0.0 0.0 0.36 1.40 0.08 98 1003.9
20260507041503 10 351 0.0 0.0 0.36 1.37 0.05 98 1004.0
20260507041003 10 351 0.0 0.0 0.36 1.37 0.05 98 1004.0
20260507040502 10 351 0.0 0.0 0.36 1.37 0.05 98 1003.9
20260507040002 10 351 0.0 0.0 0.33 1.32 0.00 98 1003.9
20260507035502 10 351 0.0 0.0 0.30 1.30 1.30 98 1004.0
20260507035003 10 351 0.0 0.0 0.25 1.24 1.24 99 1003.8
20260507034503 10 351 0.0 0.0 0.25 1.22 1.22 99 1003.7
20260507034002 10 351 0.0 0.0 0.23 1.19 1.19 99 1003.4
20260507033503 10 350 0.0 0.0 0.18 1.14 1.14 98 1003.5
20260507033003 10 351 0.0 0.0 0.13 1.07 1.07 98 1003.6
20260507032502 10 351 0.0 0.0 0.13 1.07 1.07 98 1003.5
20260507032003 10 355 0.0 0.0 0.10 1.04 1.04 99 1003.2
20260507031503 10 355 0.0 8.0 0.10 1.02 1.02 99 1003.2
20260507031002 11 350 0.0 0.0 0.10 1.02 1.02 98 1003.2
20260507030503 11 350 0.0 0.0 0.10 1.02 1.02 99 1003.0
20260507030002 11 350 1.6 4.8 0.08 0.99 0.99 98 1002.9
20260507025503 11 350 3.2 9.7 0.08 0.99 0.99 99 1002.9
20260507025003 11 344 3.2 12.9 0.08 0.99 0.99 99 1002.9
20260507024502 12 273 0.0 0.0 0.05 0.97 0.97 99 1002.8
20260507024002 12 236 0.0 0.0 0.08 0.97 0.97 99 1002.8
20260507023503 12 225 0.0 0.0 0.08 0.97 0.97 99 1002.8
20260507023002 12 225 0.0 0.0 0.05 0.94 0.94 99 1002.8
20260507022503 12 225 0.0 0.0 0.05 0.94 0.94 99 1002.7
20260507022003 12 225 0.0 0.0 0.05 0.94 0.94 99 1002.7
20260507021502 12 225 0.0 0.0 0.03 0.91 0.91 99 1002.7
20260507021002 12 225 0.0 0.0 0.03 0.91 0.91 99 1002.7
20260507020503 12 225 0.0 0.0 0.03 0.91 0.91 99 1002.7
20260507020002 12 225 0.0 0.0 0.03 0.91 0.91 99 1002.7
20260507015003 12 225 0.0 0.0 0.03 0.91 0.91 99 1002.8
20260507014503 12 225 0.0 0.0 0.03 0.91 0.91 99 1002.8
20260507014002 12 225 0.0 0.0 0.00 0.89 0.89 99 1002.9
20260507013503 12 225 0.0 0.0 0.00 0.89 0.89 99 1003.0
20260507013003 12 225 0.0 0.0 0.00 0.89 0.89 99 1003.0
20260507012502 12 225 3.2 12.9 0.00 0.89 0.89 99 1002.9
20260507012003 12 202 3.2 16.1 0.00 0.89 0.89 99 1002.7
20260507011503 12 181 8.0 19.3 0.00 0.89 0.89 99 1002.7
20260507011003 12 202 8.0 14.5 0.00 0.89 0.89 99 1002.7
20260507010002 12 187 9.7 29.0 0.03 0.89 0.89 99 1002.8
20260507005503 12 177 6.4 22.5 0.03 0.89 0.89 99 1002.9
20260507005002 12 226 4.8 20.9 0.03 0.89 0.89 99 1002.9
20260507004003 12 208 8.0 19.3 0.03 0.89 0.89 99 1003.0
20260507003503 12 216 8.0 19.3 0.03 0.89 0.89 99 1002.9
20260507003003 12 204 6.4 19.3 0.03 0.89 0.89 99 1003.0
20260507002503 12 201 6.4 19.3 0.03 0.89 0.89 99 1003.0
20260507002002 12 181 3.2 19.3 0.03 0.89 0.89 99 1003.0
20260507001503 12 187 4.8 16.1 0.03 0.89 0.89 99 1003.0
20260507000503 12 185 3.2 14.5 0.03 0.89 0.89 99 1003.0
20260507000003 12 187 4.8 11.3 0.00 0.86 0.86 98 1003.0
20260506235503 12 178 4.8 19.3 0.00 0.86 0.86 98 1003.0
20260506235003 12 180 4.8 16.1 0.00 0.86 0.86 98 1003.1
20260506234002 12 199 3.2 19.3 0.00 0.86 0.86 98 1003.2
20260506233503 12 207 6.4 14.5 0.00 0.89 0.86 99 1003.2
20260506233002 12 203 4.8 19.3 0.00 0.89 0.86 99 1003.2
20260506232502 12 219 4.8 12.9 0.00 0.89 0.86 99 1003.3
20260506232003 12 182 8.0 14.5 0.00 0.91 0.86 99 1003.3
20260506231503 12 183 6.4 16.1 0.03 0.91 0.86 99 1003.2
20260506231003 12 192 6.4 19.3 0.03 0.91 0.86 98 1003.4
20260506230003 12 210 6.4 16.1 0.03 0.91 0.86 98 1003.4
20260506225503 12 193 3.2 12.9 0.05 0.91 0.86 98 1003.4
20260506224502 12 191 3.2 19.3 0.05 0.91 0.86 99 1003.5
20260506223502 12 189 8.0 19.3 0.08 0.91 0.86 99 1003.6
20260506223003 12 193 4.8 16.1 0.08 0.94 0.86 99 1003.7
20260506222502 12 186 6.4 22.5 0.08 0.94 0.86 99 1003.7
20260506222003 12 199 4.8 19.3 0.10 0.94 0.86 99 1003.7
20260506221504 12 199 6.4 25.7 0.08 0.91 0.84 99 1003.8
20260506220503 12 191 9.7 19.3 0.13 0.91 0.84 99 1003.9
20260506215503 12 208 4.8 14.5 0.13 0.89 0.81 98 1003.9
20260506215003 12 199 8.0 19.3 0.13 0.89 0.81 98 1004.0
20260506214503 12 191 8.0 19.3 0.15 0.89 0.81 98 1003.9
20260506213503 12 193 4.8 19.3 0.13 0.86 0.79 98 1003.9
20260506213003 12 185 6.4 25.7 0.13 0.86 0.79 98 1003.9
20260506212003 12 166 9.7 25.7 0.13 0.84 0.76 98 1003.9
20260506211502 12 214 6.4 19.3 0.13 0.84 0.76 98 1003.8
20260506211003 12 196 6.4 20.9 0.10 0.81 0.74 98 1003.7
20260506210504 12 190 4.8 16.1 0.08 0.79 0.71 98 1003.6
20260506210003 12 190 4.8 22.5 0.10 0.79 0.71 98 1003.7
20260506205003 12 183 8.0 19.3 0.10 0.76 0.69 98 1003.8
20260506204503 12 153 8.0 19.3 0.10 0.74 0.66 98 1003.9
20260506204003 12 180 6.4 14.5 0.10 0.74 0.66 98 1004.0
20260506203003 12 174 8.0 16.1 0.15 0.74 0.66 98 1004.0
20260506202503 12 170 3.2 19.3 0.18 0.71 0.64 98 1004.1
20260506202003 12 183 4.8 16.1 0.20 0.71 0.64 98 1004.2
20260506201503 12 173 1.6 11.3 0.23 0.71 0.64 98 1004.3
20260506201003 12 186 3.2 11.3 0.30 0.71 0.64 98 1004.3
20260506200503 12 212 1.6 11.3 0.33 0.71 0.64 98 1004.5
20260506195503 12 217 1.6 9.7 0.36 0.66 0.58 98 1004.7
20260506195003 13 208 4.8 14.5 0.41 0.66 0.58 97 1004.6
20260506194503 13 205 6.4 20.9 0.41 0.64 0.56 97 1004.5
20260506193503 13 198 1.6 8.0 0.41 0.61 0.53 97 1004.5
20260506193003 13 171 3.2 12.9 0.41 0.58 0.51 97 1004.5
20260506192003 13 166 1.6 11.3 0.36 0.51 0.43 97 1004.7
20260506191004 13 191 3.2 11.3 0.28 0.41 0.33 97 1005.1
20260506190503 13 211 3.2 11.3 0.25 0.38 0.30 97 1004.9
20260506190003 13 190 3.2 14.5 0.20 0.33 0.25 97 1004.8
20260506185503 13 167 3.2 12.9 0.18 0.30 0.23 96 1004.7
20260506184503 13 162 3.2 14.5 0.13 0.23 0.15 96 1004.7
20260506184004 13 169 3.2 14.5 0.10 0.20 0.13 96 1004.8
20260506183503 13 173 3.2 16.1 0.10 0.20 0.13 96 1004.9
20260506183003 13 167 3.2 9.7 0.08 0.18 0.10 95 1004.8
20260506182004 13 152 1.6 16.1 0.05 0.15 0.08 95 1004.9
20260506181003 13 170 1.6 11.3 0.03 0.13 0.05 94 1005.1
20260506180503 13 187 1.6 8.0 0.03 0.13 0.05 94 1005.1
20260506180004 13 146 1.6 9.7 0.03 0.13 0.05 93 1005.1
20260506175503 13 185 3.2 9.7 0.03 0.13 0.05 93 1005.2
20260506175004 13 147 4.8 12.9 0.03 0.13 0.05 92 1005.3
20260506174003 14 172 3.2 14.5 0.00 0.10 0.03 92 1005.6
20260506173503 14 183 1.6 11.3 0.00 0.10 0.03 92 1005.5
20260506173003 14 176 1.6 16.1 0.00 0.10 0.03 93 1005.6
20260506172503 14 207 1.6 9.7 0.00 0.10 0.03 93 1005.8
20260506172003 14 172 3.2 19.3 0.00 0.10 0.03 93 1006.0
20260506171503 14 187 0.0 11.3 0.03 0.10 0.03 93 1006.0
20260506171003 14 225 3.2 11.3 0.03 0.10 0.03 94 1006.0
20260506170503 14 147 1.6 9.7 0.03 0.10 0.03 94 1006.0
20260506170004 14 175 0.0 1.6 0.03 0.10 0.03 94 1006.1
20260506165503 14 175 0.0 0.0 0.03 0.10 0.03 94 1006.1
20260506165004 14 177 1.6 4.8 0.03 0.10 0.03 94 1006.2
20260506164503 14 186 0.0 0.0 0.03 0.10 0.03 94 1006.5
20260506164003 14 186 0.0 0.0 0.03 0.10 0.03 93 1006.6
20260506163003 14 186 0.0 0.0 0.03 0.10 0.03 91 1006.7
20260506162503 14 186 0.0 0.0 0.03 0.10 0.03 90 1006.8
20260506162003 15 186 0.0 0.0 0.03 0.10 0.03 88 1007.2
20260506161503 15 186 0.0 0.0 0.00 0.08 0.00 85 1007.2
20260506161004 15 186 0.0 0.0 0.00 0.08 0.00 85 1007.5
20260506160503 15 186 0.0 0.0 0.00 0.08 0.00 84 1007.4
20260506160003 15 186 0.0 0.0 0.00 0.08 0.00 83 1007.2
20260506155504 15 186 0.0 1.6 0.00 0.08 0.00 83 1007.3
20260506155003 15 186 0.0 0.0 0.00 0.08 0.00 82 1007.5
20260506154503 15 186 1.6 11.3 0.00 0.08 0.00 83 1007.5
20260506154004 15 183 0.0 0.0 0.00 0.08 0.00 83 1007.4
20260506152503 15 171 0.0 0.0 0.00 0.08 0.00 81 1007.2
20260506152003 15 171 0.0 1.6 0.00 0.08 0.00 82 1007.3
20260506151503 15 168 0.0 3.2 0.00 0.08 0.00 81 1007.1
20260506151004 15 157 1.6 11.3 0.00 0.08 0.00 81 1007.2
20260506150503 15 153 1.6 9.7 0.00 0.08 0.00 83 1007.1
20260506150004 15 163 1.6 8.0 0.00 0.08 0.00 82 1007.1
20260506145503 15 197 0.0 4.8 0.00 0.08 0.00 83 1007.1
20260506145004 15 198 0.0 8.0 0.00 0.08 0.00 82 1007.0
20260506144005 15 201 0.0 9.7 0.00 0.08 0.00 82 1007.1
20260506143504 14 203 0.0 4.8 0.00 0.08 0.00 83 1007.3
20260506143003 14 181 0.0 0.0 0.00 0.08 0.00 83 1007.3
20260506142003 14 181 0.0 0.0 0.00 0.08 0.00 83 1007.6
20260506141004 14 181 0.0 4.8 0.00 0.08 0.00 84 1007.7
20260506140503 14 181 0.0 4.8 0.00 0.08 0.00 84 1007.7
20260506140004 14 181 0.0 0.0 0.00 0.08 0.00 83 1007.6
20260506135004 13 181 0.0 0.0 0.00 0.08 0.00 84 1007.6
20260506134503 13 181 0.0 0.0 0.00 0.08 0.00 83 1007.5
20260506134003 13 181 0.0 0.0 0.00 0.08 0.00 84 1007.5
20260506133503 13 181 0.0 0.0 0.00 0.08 0.00 84 1007.4
20260506131503 13 181 0.0 0.0 0.00 0.08 0.00 85 1007.6
20260506131004 13 181 0.0 0.0 0.00 0.08 0.00 86 1007.5
20260506130503 13 181 0.0 0.0 0.00 0.08 0.00 85 1007.6
20260506130005 13 181 0.0 0.0 0.00 0.08 0.00 86 1007.7
20260506125503 13 181 0.0 0.0 0.00 0.08 0.00 85 1007.8
20260506123504 13 196 0.0 4.8 0.00 0.08 0.00 85 1008.0
20260506123004 13 196 0.0 0.0 0.00 0.08 0.00 88 1008.2
20260506122503 13 196 1.6 9.7 0.00 0.08 0.00 88 1008.1
20260506122004 13 202 0.0 0.0 0.00 0.08 0.00 87 1008.4
20260506121504 13 202 0.0 0.0 0.00 0.08 0.00 89 1008.3
20260506121003 13 189 0.0 0.0 0.00 0.08 0.00 89 1008.3
20260506120504 13 189 0.0 0.0 0.00 0.08 0.00 89 1008.4
20260506120004 12 189 0.0 0.0 0.00 0.08 0.00 89 1008.4
20260506115504 12 189 0.0 0.0 0.00 0.08 0.00 89 1008.3
20260506114503 12 189 0.0 0.0 0.00 0.08 0.00 90 1008.2
20260506114003 12 189 0.0 0.0 0.00 0.08 0.00 91 1008.2
20260506113504 12 189 0.0 4.8 0.00 0.08 0.00 92 1008.4
20260506113003 12 189 0.0 0.0 0.00 0.08 0.00 93 1008.3
20260506112503 12 189 0.0 0.0 0.00 0.08 0.00 93 1008.3
20260506111504 12 189 0.0 0.0 0.00 0.08 0.00 94 1008.3
20260506111004 11 189 0.0 0.0 0.00 0.08 0.00 95 1008.3
20260506110004 11 189 0.0 0.0 0.00 0.08 0.00 95 1008.5
20260506105504 11 189 0.0 0.0 0.00 0.08 0.00 96 1008.6
20260506105004 11 189 0.0 0.0 0.00 0.08 0.00 96 1008.5
20260506104003 11 189 0.0 0.0 0.00 0.08 0.00 97 1008.5
20260506103504 11 189 0.0 0.0 0.00 0.08 0.00 97 1008.4
20260506103003 11 190 0.0 0.0 0.00 0.08 0.00 97 1008.4
20260506102503 11 190 0.0 0.0 0.00 0.08 0.00 96 1008.5
20260506102004 11 190 0.0 0.0 0.00 0.08 0.00 96 1008.4
20260506101504 10 190 0.0 0.0 0.00 0.08 0.00 96 1008.3
20260506100504 10 190 0.0 0.0 0.00 0.08 0.00 96 1008.5
20260506100004 10 190 0.0 0.0 0.00 0.08 0.00 96 1008.5
20260506095504 10 190 0.0 0.0 0.00 0.08 0.00 96 1008.3
20260506095003 10 190 0.0 0.0 0.00 0.08 0.00 96 1008.2
20260506094504 10 190 0.0 0.0 0.00 0.08 0.00 95 1008.1
20260506094003 10 190 0.0 0.0 0.00 0.08 0.00 96 1007.9
20260506093504 11 190 0.0 0.0 0.00 0.08 0.00 95 1007.8
20260506093004 11 190 0.0 0.0 0.00 0.08 0.00 95 1007.8
20260506092504 11 190 0.0 0.0 0.00 0.08 0.00 95 1007.9
20260506092004 11 190 0.0 0.0 0.00 0.08 0.00 95 1007.9